Regional Weather Roundup
Issued by NWS Goodland, KS

Home | Current Version | Previous Version | Graphics & Text | Print | Product List | Glossary On
Versions: 1 2 3 4 5 6 7 8 9 10 11 12 13 14 15 16 17 18 19 20 21 22 23 24 25 26 27 28 29 30 31 32 33 34 35 36 37 38 39 40 41 42 43 44 45 46 47 48 49 50
000
ASUS43 KGLD 261459
RWRGLD

GOODLAND FORECAST AREA HOURLY WEATHER ROUNDUP
NATIONAL WEATHER SERVICE GOODLAND KS
900 AM MDT WED JUL 26 2017

...OFFICIAL OBSERVATIONS...

CITY           SKY/WX    TMP DP  RH WIND       PRES   REMARKS
GOODLAND KS    CLOUDY    70  66  87 NW21G28   30.06R
HILL CITY KS   PTSUNNY   78  72  81 CALM      29.93R
IMPERIAL NEB   CLOUDY    70  64  81 N13       30.07R
MCCOOK NEB     CLOUDY    73  70  90 N12       29.97R
AKRON CO       CLOUDY    69  61  75 N13       30.19R
BURLINGTON CO  MOSUNNY   72  64  76 N17G24    30.13R
LIMON CO       SUNNY     68  61  78 NW18      30.24R
$$

...UNOFFICIAL OBSERVATIONS...

CITY           SKY/WX    TMP DP  RH WIND       PRES   REMARKS
LENORA KS        N/A     79  32  18 MISG        N/A
NORTON KS      SUNNY     79  66  65 E9        29.92F
SHARON SPRINGS   N/A     73  67  81 NW16G26     N/A
TRENTON NEB      N/A     72  32  23 N7          N/A
KIT CARSON CO    N/A     74  63  67 MISG        N/A
YUMA CO        CLOUDY    70  55  60 NW14G20   30.14R
$$




USA.gov is the U.S. government's official web portal to all federal, state and local government web resources and services.